Temp
22 21 21 22 23 22 22 23 24 23 23 24 24 24 24 23 23 23 23 23 23 23 22 22 22 22 22 22 22 22 22 22 22 23 23 23 23 23 23 23 23 23 24 24 24 24 24 25 25 25 25 25 25 26 27 27 26 26 27 27 27 26 26 26 26 25 25 24 24 24 24 23 23 23 23 23 22 22 22 22 22 22 22 22 22
22 21 21 21 21 22 22 22 23 23 23 24 24 24 24 24 24 24 23 23 23 23 23 22 22 22 22 22 22 22 23 23 23 23 23 23 23 23 23 23 23 23 23 24 24 24 24 25 25 25 25 25 25 26 27 26 26 26 27 27 27 27 27 26 26 25 24 23 23 23 23 23 22 22 23 23 22 22 22 22 22 22 22 22 22
22 21 21 21 21 22 22 22 22 23 23 23 24 25 24 24 24 24 23 23 24 23 23 23 22 22 22 22 23 23 23 23 24 24 24 24 24 24 24 24 24 24 24 24 24 24 24 25 26 25 25 25 25 26 26 26 26 26 27 27 27 27 27 26 26 26 25 24 23 23 23 22 22 22 22 22 22 22 22 22 22 22 22 22 22
22 22 21 22 22 22 22 22 22 23 23 23 24 24 24 24 24 24 23 23 24 24 23 22 22 22 22 22 22 23 23 24 24 24 24 24 24 24 24 24 24 24 24 24 24 24 24 25 26 26 25 25 25 26 26 26 26 26 26 27 27 27 27 26 26 26 26 25 24 23 22 22 23 23 22 22 23 22 22 22 22 23 22 22 22
23 23 22 22 23 22 22 22 22 22 23 23 23 24 24 24 24 24 24 24 24 24 23 23 23 22 21 21 21 22 23 24 23 24 24 24 24 25 25 25 25 25 24 24 24 25 24 25 26 26 25 25 25 26 26 26 26 26 26 27 27 27 27 27 27 26 26 27 26 24 23 24 24 23 22 23 23 22 23 22 23 23 23 22 22
23 23 22 22 23 22 22 22 22 22 23 23 23 23 23 24 24 24 24 24 24 24 23 24 24 23 21 21 20 21 23 24 24 24 24 24 25 25 25 25 25 25 25 25 25 25 25 25 25 26 26 25 25 25 26 26 26 26 26 27 27 27 27 27 27 27 27 27 27 26 26 26 25 23 23 24 23 22 23 23 23 23 23 22 22
23 23 22 23 23 23 22 21 21 21 22 24 24 24 23 23 24 23 23 24 23 23 23 23 23 23 22 22 21 21 23 24 24 25 25 25 25 25 25 25 26 26 25 25 25 25 25 25 25 25 26 26 25 25 26 26 26 26 27 27 27 27 27 27 27 27 27 26 26 26 26 26 26 24 24 24 24 23 23 23 23 23 23 23 23
23 23 23 23 23 23 23 22 21 20 20 21 23 25 25 24 24 24 24 23 22 22 22 22 22 23 23 23 22 22 24 24 25 25 25 25 25 25 25 26 26 26 26 25 25 25 25 25 25 25 26 26 25 25 26 26 26 26 26 26 27 27 27 27 27 27 26 26 26 26 26 26 26 25 25 24 24 24 23 23 23 23 23 23 23
22 22 22 22 23 23 23 23 23 22 20 19 20 22 23 24 24 24 24 24 23 22 22 22 23 23 22 22 22 22 24 25 25 25 25 25 25 25 25 26 26 26 26 25 25 25 25 25 25 25 25 25 25 25 26 26 26 26 26 26 26 27 27 27 27 27 27 27 26 26 25 25 25 25 24 24 23 24 24 24 23 23 23 24 24
22 22 21 21 22 22 22 23 23 23 22 21 20 20 20 21 21 21 21 22 22 22 21 21 21 22 22 22 22 23 24 24 24 25 25 25 25 25 25 25 26 25 25 25 25 25 25 25 25 24 25 25 25 25 25 26 26 26 26 27 27 27 27 27 27 27 27 27 26 26 25 25 24 24 24 23 23 23 23 23 22 23 23 24 25
22 21 21 21 21 21 22 22 22 22 23 22 22 21 21 20 20 20 20 20 20 20 20 20 20 20 21 22 22 23 24 24 24 24 25 25 25 25 25 25 25 25 25 25 25 26 25 25 25 24 24 25 25 26 26 26 26 26 26 27 27 27 27 27 27 27 27 27 26 26 26 25 25 24 24 24 23 22 23 23 22 23 23 24 25
22 21 21 21 21 21 21 21 21 22 22 22 22 22 22 21 21 21 21 20 20 20 21 20 20 19 19 20 21 22 23 24 24 24 25 25 25 25 25 25 25 25 25 25 25 26 25 25 25 25 25 25 25 26 26 26 26 26 26 26 27 27 27 27 27 27 27 27 26 26 26 26 26 26 25 25 24 24 23 22 23 24 24 24 25
22 21 21 21 20 20 20 20 21 21 21 21 22 22 22 21 21 22 22 22 21 21 21 21 20 20 20 19 20 20 21 22 23 24 24 25 25 25 25 25 25 25 25 25 25 26 26 26 25 25 25 25 26 26 26 26 26 26 26 26 26 27 27 27 27 27 27 26 27 26 26 26 26 26 26 25 25 25 24 23 23 24 23 24 25
22 21 21 21 20 20 20 20 20 21 21 21 21 22 22 21 21 21 21 21 21 21 21 21 21 21 20 20 20 20 19 20 21 22 23 24 24 25 25 25 25 25 25 25 26 26 26 26 26 26 26 26 26 26 26 26 26 26 26 26 26 27 27 27 27 27 27 26 26 26 26 26 26 26 26 26 25 25 24 23 23 24 23 23 24
22 21 21 21 20 20 20 20 20 21 22 22 21 22 22 22 21 21 21 21 21 21 21 21 21 21 20 20 20 20 20 20 20 20 22 23 24 24 25 25 25 25 25 25 26 26 26 26 26 26 26 26 26 26 26 26 26 26 26 26 26 26 27 27 27 27 27 26 26 26 26 26 26 26 26 26 26 25 25 25 24 24 24 23 23
22 22 21 21 21 21 21 21 21 21 22 22 22 22 22 22 21 21 21 21 21 21 21 21 21 21 20 20 20 20 20 20 20 20 21 22 23 24 24 25 25 25 25 25 25 26 26 26 26 26 26 26 26 26 26 26 26 26 26 26 26 26 27 27 27 27 26 26 26 26 26 26 26 26 26 25 25 25 25 25 25 24 24 24 23
23 22 21 21 21 21 21 21 21 21 22 22 22 22 22 22 22 22 22 22 21 21 21 21 21 21 20 20 20 20 20 20 20 20 21 22 23 23 24 25 25 25 25 25 25 25 25 25 25 25 26 26 26 26 26 26 26 26 26 26 26 26 27 27 26 26 26 26 26 26 26 25 25 25 25 25 25 25 25 25 25 25 24 24 24
23 22 22 21 21 22 22 21 22 22 22 22 22 22 22 22 22 22 22 22 21 21 21 21 21 20 20 20 20 20 20 20 20 20 21 21 22 23 23 24 25 25 25 25 25 25 24 24 23 24 24 25 26 27 26 26 26 26 26 26 26 26 26 26 26 26 26 26 26 25 25 25 25 25 25 25 25 25 25 25 25 25 25 24 24
23 23 22 22 21 22 22 22 22 22 22 22 22 22 22 22 22 22 22 22 21 21 21 21 21 21 21 20 20 20 20 20 20 20 21 21 22 22 23 23 24 24 24 25 25 25 25 25 24 24 24 24 25 26 27 26 26 26 26 26 26 26 26 26 26 26 26 26 25 25 25 25 25 25 25 25 25 25 25 25 25 25 25 25 24
23 23 23 22 22 22 23 22 22 23 22 22 22 22 22 22 22 22 22 22 22 22 21 21 21 21 21 21 21 20 20 20 20 20 20 21 22 22 22 23 23 23 24 24 24 25 25 25 25 25 25 24 24 24 26 26 26 26 26 26 26 26 26 26 26 26 25 25 25 25 25 25 25 25 25 25 25 25 25 25 25 25 25 25 25
23 23 23 22 22 23 23 23 23 23 23 23 23 22 22 22 22 22 22 22 22 22 22 21 21 21 21 21 21 21 20 20 20 20 20 21 21 22 22 23 23 23 23 23 24 25 25 25 25 25 24 24 23 23 23 25 26 27 26 26 26 26 26 26 26 26 25 25 25 25 25 25 25 25 25 25 25 25 25 25 25 25 25 25 25
23 24 23 22 22 23 23 23 23 23 23 23 23 23 22 22 22 22 22 22 22 22 21 21 21 21 20 20 21 21 21 20 21 21 21 21 21 22 22 22 23 24 23 23 23 24 24 25 24 24 24 24 24 23 22 22 24 26 26 26 26 26 26 26 26 25 25 25 25 25 25 25 25 25 25 25 25 24 24 24 25 25 25 24 24
24 23 23 22 23 23 23 23 23 23 23 23 23 23 23 23 22 22 22 22 22 22 21 21 21 21 21 20 20 20 21 20 20 21 21 22 22 22 22 22 23 24 24 24 23 24 24 24 23 24 24 24 24 24 23 21 22 24 26 26 26 26 26 26 25 25 25 25 25 25 25 25 25 25 25 24 24 24 24 24 24 24 24 24 24
24 23 22 22 23 23 23 23 23 23 23 23 23 23 23 23 23 22 22 22 22 22 21 21 21 21 21 20 20 20 20 20 20 20 21 22 22 22 22 22 22 23 24 25 25 24 24 23 23 23 24 24 24 24 23 22 21 22 24 26 26 26 26 26 25 25 25 25 25 25 25 25 24 24 24 24 24 24 24 24 24 24 24 24 24
24 24 23 22 22 22 22 23 23 23 23 23 23 23 23 23 23 23 22 22 22 22 21 21 21 21 20 20 20 20 20 20 20 20 21 21 21 21 22 22 22 22 23 25 25 25 25 24 23 23 23 24 24 24 24 24 23 21 21 25 26 26 26 26 25 25 25 25 25 25 25 25 24 24 24 24 24 24 24 24 24 24 24 24 24
24 24 24 23 22 22 23 23 23 23 23 23 23 23 23 23 23 23 23 22 22 22 21 21 21 21 20 20 20 20 20 20 20 20 20 20 20 21 21 21 21 21 22 23 24 24 25 24 24 23 24 24 24 25 25 24 24 23 21 22 25 26 26 26 25 25 25 25 25 25 25 25 24 24 24 24 24 24 24 24 24 24 24 24 24
24 24 24 24 23 22 22 23 23 23 23 23 23 23 23 23 23 23 23 22 22 22 22 21 21 21 20 20 19 19 20 20 20 20 20 20 20 20 20 20 21 21 21 21 22 22 23 23 23 23 24 24 24 24 25 24 25 24 23 22 23 25 26 26 25 25 25 25 25 25 25 25 24 24 24 24 24 23 23 23 23 24 23 23 23
24 24 23 24 24 22 21 23 23 23 23 23 23 23 23 23 23 23 23 23 22 22 22 22 21 21 20 20 20 19 19 19 19 20 20 20 20 20 20 20 20 20 20 21 21 21 22 22 22 23 23 24 24 24 24 24 24 24 24 23 23 24 26 26 25 25 25 25 25 25 25 25 24 24 24 24 24 23 23 23 23 23 23 23 23
24 24 24 24 24 21 21 22 23 23 23 23 23 23 23 23 23 23 23 23 22 22 22 22 21 21 21 20 20 20 20 19 19 19 19 19 20 20 20 20 20 20 20 21 21 21 21 21 22 22 23 23 23 24 24 23 23 23 24 24 23 24 26 26 25 25 25 25 25 25 25 24 24 24 24 24 24 24 23 23 23 23 23 23 23
24 24 24 24 22 20 21 23 23 23 23 23 22 23 23 23 23 23 23 23 22 22 22 22 21 21 21 20 20 20 20 20 20 19 19 19 19 20 20 20 20 20 20 20 20 21 21 21 21 21 22 22 23 23 23 23 24 24 24 24 24 24 25 25 25 25 24 24 24 24 24 24 24 24 24 24 24 24 23 23 22 22 22 23 22
24 24 23 23 22 20 21 22 22 22 23 22 23 23 23 23 22 22 23 23 22 22 22 22 22 21 21 21 20 20 20 20 20 20 20 19 19 19 19 19 20 20 20 20 20 20 20 20 21 21 21 22 22 22 23 23 23 23 24 24 23 24 24 24 25 25 24 24 24 24 24 24 24 24 24 24 24 23 23 23 22 22 21 22 22
24 24 23 24 23 20 20 22 22 23 23 23 23 23 22 22 22 22 22 22 22 22 22 22 22 21 21 21 21 20 20 20 20 20 20 20 20 20 19 19 19 20 20 20 20 20 20 20 20 20 20 21 22 22 22 23 23 23 23 23 23 24 24 24 24 24 24 24 24 24 24 24 24 24 24 24 23 23 23 23 23 22 22 21 21
24 24 23 23 22 21 22 23 23 23 23 22 22 22 22 22 22 22 22 22 22 22 22 22 22 22 21 21 21 21 20 20 20 19 20 20 20 20 20 19 19 20 20 20 20 20 20 20 20 20 20 21 22 22 22 22 22 22 22 22 22 23 23 23 23 23 23 23 24 24 24 24 24 24 23 23 23 23 23 23 22 22 22 22 21
23 23 22 21 21 22 23 23 23 22 22 22 22 22 22 22 22 22 22 22 22 22 22 22 22 22 22 21 21 21 20 20 20 19 19 20 20 20 20 19 19 19 19 20 20 20 20 20 20 20 20 21 21 21 22 22 22 22 21 21 22 22 22 22 22 22 22 22 23 23 23 23 24 24 23 23 23 23 23 22 22 22 22 22 22
23 23 22 21 22 23 22 22 22 22 22 22 22 22 22 22 22 22 22 22 22 22 22 22 22 22 21 21 21 21 21 20 20 20 20 20 20 20 20 20 19 19 19 20 20 20 20 20 20 20 20 20 21 21 21 21 22 22 21 21 21 21 21 21 21 21 21 22 22 22 22 22 23 23 23 23 23 23 23 22 22 22 22 22 22
23 23 22 22 22 22 22 22 22 22 22 22 22 22 21 21 22 22 22 21 21 21 22 22 22 21 21 21 21 21 20 20 20 20 20 20 19 19 19 20 20 20 20 19 19 19 19 19 20 20 20 20 20 20 20 21 21 21 20 20 20 20 20 20 20 20 21 21 22 21 21 22 22 23 23 23 23 22 22 22 22 22 22 22 22
23 22 22 22 22 22 22 22 22 22 22 21 21 21 21 21 21 21 21 21 21 21 21 21 21 21 21 21 21 20 20 20 20 20 19 20 19 19 18 19 19 20 20 20 19 19 19 19 19 20 20 20 20 20 20 20 20 20 20 20 20 20 20 20 20 20 21 21 21 21 21 21 22 23 23 23 23 22 21 21 21 21 21 21 22
23 22 22 22 22 22 22 21 21 21 21 21 21 21 21 21 21 21 21 21 20 21 21 21 21 21 21 20 20 20 20 20 20 19 19 20 20 19 18 18 19 19 19 19 19 19 19 19 19 20 20 20 20 21 21 20 20 20 20 20 20 20 20 20 20 20 20 20 20 21 21 21 22 22 23 23 22 22 21 21 21 20 20 21 22
23 22 22 22 22 22 21 21 21 21 21 21 21 21 21 20 21 20 20 20 20 20 21 20 20 20 20 20 20 20 20 20 20 20 19 19 19 19 19 18 19 19 19 19 19 19 19 19 19 19 20 20 20 20 20 20 20 20 20 20 20 20 20 20 20 20 20 20 20 21 21 21 21 22 22 22 22 22 21 21 21 21 20 21 22
23 23 22 22 21 21 21 21 21 21 21 20 20 20 20 20 20 20 20 20 20 20 20 20 20 20 20 20 20 20 20 20 20 20 20 19 19 19 19 19 19 19 19 19 19 19 19 19 19 19 19 19 20 20 20 20 20 20 20 20 20 20 20 20 20 19 20 20 20 21 21 21 21 21 21 21 22 22 21 21 21 20 20 21 21
23 22 22 21 21 21 20 20 20 20 20 19 19 19 19 19 19 19 19 19 20 20 20 20 20 20 20 20 20 20 20 20 20 20 19 19 19 18 19 19 19 19 19 19 19 19 19 19 19 19 19 20 20 20 20 20 20 20 20 20 19 20 20 19 19 19 20 20 20 20 21 21 21 21 21 21 21 21 21 21 21 21 21 21 21
22 22 21 21 20 20 20 20 20 19 19 19 19 18 18 19 19 19 19 19 19 19 19 19 19 19 19 19 20 20 20 20 20 20 19 19 19 18 18 19 19 19 19 19 19 19 19 19 19 20 20 20 20 20 20 20 20 20 20 20 19 19 19 19 19 19 19 20 20 20 20 20 21 21 21 21 21 21 21 21 21 21 21 20 20
21 21 20 20 20 19 19 19 19 19 19 19 18 18 18 18 18 19 19 19 19 19 19 19 19 19 19 19 19 20 20 20 20 20 19 19 19 18 18 18 19 19 19 19 18 18 19 19 19 19 20 20 20 20 20 20 20 20 20 20 20 19 19 19 19 19 19 19 19 20 20 20 21 21 21 21 21 21 20 20 20 20 20 20 20
21 20 20 20 19 19 19 19 19 18 18 18 18 18 18 18 18 19 18 18 18 19 19 19 19 19 19 19 19 19 20 20 20 20 19 19 19 18 18 18 18 19 19 19 19 18 18 18 19 19 20 20 20 20 20 19 19 19 20 20 20 19 19 19 19 19 19 19 20 20 20 20 21 21 21 20 20 20 20 20 20 20 20 20 20
20 20 20 19 19 19 18 18 18 18 18 18 18 18 18 18 18 18 18 18 18 18 18 19 19 19 19 19 19 19 20 20 20 19 19 18 18 18 18 18 18 19 19 19 19 18 18 18 18 19 19 19 19 19 19 19 19 19 19 19 19 19 19 19 19 19 19 20 20 20 20 20 20 20 20 20 20 20 20 20 20 20 20 20 20
20 20 20 19 19 18 18 18 18 18 18 18 18 18 18 18 18 18 18 18 18 18 18 18 18 19 19 19 19 19 20 20 20 19 19 18 18 18 18 18 18 18 19 19 18 18 18 18 18 18 18 18 18 19 19 19 18 18 18 18 19 19 19 19 19 19 19 19 20 20 20 20 20 20 19 20 20 20 20 20 20 20 20 20 20
20 20 19 19 18 18 18 18 18 18 18 18 18 18 18 18 18 18 18 18 18 18 18 18 18 18 18 19 19 19 19 19 20 19 19 19 18 18 17 17 17 18 18 18 18 18 18 18 18 18 18 18 18 18 19 19 18 18 18 18 18 19 19 19 19 19 19 19 19 19 19 19 19 19 19 19 19 19 19 20 20 19 19 19 19
20 19 19 19 18 18 18 17 17 17 18 17 17 18 18 18 18 18 18 18 18 18 18 18 18 18 18 18 18 19 19 19 19 19 19 19 19 18 18 18 18 18 18 18 18 18 18 18 18 18 18 18 18 18 19 19 19 18 18 18 19 19 19 19 19 19 19 19 19 18 18 19 19 19 19 19 19 19 19 19 19 19 18 18 19
20 19 19 19 18 18 18 17 17 17 17 17 17 17 17 17 17 18 18 18 17 18 18 17 17 17 17 18 18 18 19 19 19 19 19 19 18 18 18 18 18 18 18 18 18 18 18 18 18 18 18 18 18 18 19 20 19 19 18 18 19 19 19 20 20 20 19 19 18 18 18 18 18 19 18 18 18 18 18 18 18 18 18 18 19
19 19 19 19 18 18 18 17 17 17 17 17 17 17 17 17 17 17 17 17 17 17 17 17 17 17 17 17 18 18 18 19 19 19 19 19 18 18 18 18 18 18 18 19 18 18 18 19 19 19 19 19 19 19 19 19 19 19 19 19 19 19 19 19 19 19 19 19 18 18 18 18 18 18 18 18 18 18 18 18 18 18 18 19 19
19 19 19 18 18 18 18 18 17 17 17 17 16 17 17 17 17 17 17 17 17 17 17 17 17 17 17 17 17 18 18 18 19 19 19 18 18 18 18 18 17 17 18 18 19 19 19 19 19 20 20 20 20 20 19 19 20 20 19 19 19 19 19 19 19 19 19 19 18 18 18 18 18 18 18 18 18 18 18 18 18 18 19 19 19
Height
797 797 794 788 786 788 791 789 786 791 795 796 797 799 801 802 804 805 806 808 809 811 813 814 814 815 814 814 814 814 816 817 817 817 818 818 819 820 820 820 821 821 822 822 823 823 823 824 824 825 826 827 826 826 827 827 827 828 828 828 828 828 828 828 829 829 829 829 829 829 829 829 829 829 829 829 829 829 829 829 829 829 829 829 830
798 798 796 794 794 793 793 791 789 792 794 795 795 797 799 800 800 802 804 805 807 809 811 812 812 813 812 812 812 813 814 815 815 815 816 816 817 818 818 818 819 819 820 820 821 822 822 822 823 824 825 825 825 826 825 825 826 826 827 827 827 827 827 827 828 828 829 829 828 829 830 829 829 828 829 829 828 828 828 828 829 829 829 829 829
802 800 798 796 797 797 795 793 792 793 795 796 796 796 798 797 798 800 801 802 804 806 808 809 810 811 812 812 811 812 812 813 814 814 815 815 815 816 816 817 817 818 818 819 819 820 820 821 821 822 824 824 825 825 824 824 824 825 825 826 826 826 826 827 827 827 827 828 828 830 831 830 830 829 828 828 828 828 828 828 828 828 828 828 829
804 802 800 797 797 798 797 795 794 793 795 797 796 796 796 796 796 797 798 799 800 803 805 807 809 810 812 812 812 812 812 812 813 813 813 813 814 814 814 815 816 816 816 817 817 818 819 819 820 821 822 823 823 823 823 823 823 823 824 824 825 825 826 826 826 826 826 827 828 830 830 832 833 829 826 827 827 827 827 827 827 827 827 828 828
803 802 800 799 798 798 797 796 796 794 795 797 797 797 796 794 794 795 796 796 797 799 801 803 804 807 811 812 813 812 811 811 811 810 811 811 812 812 812 813 814 814 815 815 816 816 817 817 818 819 820 821 822 822 822 822 822 822 822 823 824 824 824 825 825 825 826 825 826 828 830 833 832 828 827 827 826 826 827 826 826 826 826 826 826
801 801 800 799 799 799 799 797 797 796 795 796 798 798 797 796 795 794 793 793 795 795 796 797 797 801 805 808 812 812 809 808 808 808 808 809 810 810 811 811 812 812 812 813 814 814 815 815 816 817 818 819 820 821 821 821 822 821 822 822 822 823 823 824 824 824 825 825 824 825 826 828 827 826 828 829 826 825 825 825 825 825 825 825 825
800 800 799 799 798 799 800 800 801 801 799 798 797 797 798 799 798 797 796 795 795 796 795 795 794 794 796 798 805 809 807 805 805 806 806 807 808 808 809 809 810 810 810 811 812 812 813 813 814 815 816 817 819 819 820 820 821 821 821 821 821 821 822 822 823 823 824 824 824 824 823 824 824 825 827 828 828 826 824 824 824 824 824 823 823
801 800 798 797 797 797 797 799 801 803 803 801 799 798 798 799 798 798 798 798 798 798 797 795 793 791 790 791 795 801 802 802 803 804 804 805 806 807 807 807 808 808 808 809 809 811 811 812 813 813 814 815 817 818 818 819 820 820 820 820 820 820 820 820 821 822 822 823 823 823 823 823 823 823 823 825 827 828 825 823 823 822 822 822 821
801 800 799 797 796 796 795 796 798 799 801 801 800 799 799 798 797 797 798 798 797 798 797 794 791 789 789 791 794 796 797 798 800 801 802 803 804 805 805 805 805 805 806 807 808 809 809 810 811 812 812 813 815 816 817 818 818 819 819 819 819 819 819 819 819 820 821 821 821 822 822 822 822 822 822 822 823 826 826 823 822 821 821 820 819
800 800 799 798 797 796 796 795 796 796 797 799 799 799 799 798 797 798 799 798 798 798 798 796 793 790 789 791 793 794 795 795 797 798 798 800 801 802 803 803 803 803 804 805 806 807 808 809 809 810 811 812 813 814 815 816 816 817 817 817 818 818 818 818 818 818 819 819 820 820 821 821 821 821 821 821 821 822 824 822 820 820 819 818 817
801 800 799 799 798 797 796 795 795 795 795 795 796 797 797 797 796 796 797 796 796 796 796 796 794 792 790 789 790 791 792 792 793 794 795 796 797 798 800 801 801 802 802 803 804 805 806 807 808 809 810 811 811 812 813 814 815 815 815 816 816 816 817 816 816 817 817 818 818 818 819 819 819 819 819 819 819 819 821 820 818 818 818 817 816
802 801 800 798 797 797 796 795 795 794 793 793 794 794 794 794 794 793 792 792 792 792 791 790 790 791 790 790 790 790 791 790 790 790 791 792 793 795 796 798 799 800 801 802 802 804 805 806 807 807 808 809 810 810 811 812 813 813 813 814 814 814 815 815 815 815 815 816 817 817 817 817 817 817 817 817 817 817 818 818 817 817 817 815 815
804 803 801 799 798 797 796 795 794 794 793 792 792 792 792 792 791 791 790 789 789 788 787 786 786 787 788 789 790 790 790 789 788 788 788 789 790 792 793 794 796 798 799 800 801 802 803 804 805 806 806 807 808 809 809 810 811 811 811 811 812 812 812 812 812 813 814 814 815 815 815 815 815 815 815 815 815 815 816 816 815 815 815 815 814
805 803 802 800 799 798 797 796 794 793 793 792 791 791 791 790 789 789 788 787 787 785 784 784 784 785 785 785 785 787 788 789 788 787 787 787 788 789 790 791 793 795 797 798 799 800 801 801 802 803 804 805 806 807 807 808 809 809 809 809 809 810 810 810 810 811 812 813 813 814 814 814 814 814 814 814 814 814 814 814 814 814 814 813 813
805 804 803 801 799 798 797 796 794 793 792 792 791 790 789 788 787 787 786 786 786 785 784 783 783 783 783 783 783 784 786 788 789 788 787 786 786 786 787 788 789 792 794 796 796 797 798 799 800 801 802 803 804 805 805 806 807 807 807 807 807 808 808 808 808 809 810 811 811 812 812 812 812 812 812 812 812 813 812 812 813 814 814 813 811
805 804 803 801 799 798 797 796 795 794 792 791 790 789 788 787 786 785 784 784 784 784 783 783 782 782 781 782 781 782 783 785 787 788 787 786 785 785 784 785 786 788 791 793 794 795 796 797 798 799 800 801 801 802 803 804 805 805 805 806 806 806 806 806 806 807 808 808 809 810 810 810 811 811 811 811 811 811 811 811 811 811 813 814 813
806 805 804 802 800 798 797 797 796 794 793 791 790 788 787 786 785 784 783 782 782 781 781 781 781 781 780 780 779 779 780 780 782 784 786 785 785 785 785 785 784 785 788 790 792 793 794 795 796 797 798 798 799 800 801 802 803 804 804 804 804 805 804 804 805 805 806 806 807 808 808 809 809 809 809 809 809 810 810 810 809 808 810 812 814
807 804 802 802 799 798 797 796 796 794 793 791 790 788 787 787 785 783 782 782 781 780 779 779 779 779 779 778 777 777 777 777 777 778 781 783 784 785 786 786 784 784 785 787 789 789 791 793 795 796 797 797 798 798 799 800 801 802 802 802 803 803 803 802 803 803 804 804 805 806 806 807 807 808 808 808 808 808 808 808 808 807 807 808 809
808 805 803 801 799 798 796 795 795 794 793 792 790 789 787 787 785 783 782 781 781 780 779 778 777 776 776 776 775 774 775 775 774 775 777 780 782 782 783 784 784 784 784 785 786 786 788 790 792 794 795 796 797 797 797 798 799 799 800 800 801 801 801 800 801 801 802 803 803 803 804 804 805 806 806 807 807 807 807 806 806 805 805 805 805
809 806 805 802 800 799 796 795 795 793 793 792 791 790 788 787 785 783 782 781 780 779 778 777 777 775 774 773 772 772 772 773 773 774 775 777 778 779 779 780 781 782 783 783 783 784 785 787 789 791 793 794 796 796 796 796 796 797 797 798 798 799 798 799 799 800 800 801 801 801 802 802 803 804 804 805 805 805 805 805 804 803 803 803 803
808 806 805 804 803 801 798 796 795 793 793 791 790 790 788 787 785 783 782 781 780 779 777 777 776 775 774 772 770 769 770 771 771 772 773 774 775 775 775 775 776 777 779 780 781 782 783 784 786 788 791 793 794 795 797 796 794 794 795 795 796 796 797 797 797 798 798 798 798 799 799 800 801 802 802 803 804 804 804 803 803 802 801 801 801
807 805 804 803 803 802 801 798 796 794 792 790 789 788 787 786 785 783 782 781 780 779 778 776 775 774 774 772 770 768 767 768 768 768 769 770 771 771 771 771 771 771 773 776 778 779 780 782 783 786 788 790 791 792 796 798 795 792 792 793 794 794 794 795 795 795 795 795 796 796 797 798 799 800 800 801 802 802 803 802 802 801 801 800 800
806 805 804 803 802 802 801 799 797 796 794 792 791 788 787 785 784 783 782 780 780 779 777 776 775 773 772 770 769 768 767 766 766 766 766 767 768 768 768 768 768 768 768 770 774 776 777 779 780 782 783 786 789 789 792 796 796 793 790 790 791 791 792 792 792 792 793 793 794 794 794 795 797 797 798 799 800 800 801 801 801 800 800 800 800
807 807 805 804 803 801 800 798 797 796 795 794 792 790 788 786 784 784 782 780 779 778 777 775 774 772 770 769 768 767 766 766 765 765 765 765 765 765 766 766 767 767 765 766 768 771 773 775 776 777 779 782 785 786 787 790 794 794 790 788 789 789 789 790 790 790 790 791 791 791 792 793 794 795 795 796 797 798 799 799 799 799 798 798 799
809 808 807 806 804 802 801 799 797 796 795 794 792 791 788 786 785 783 782 781 779 777 776 775 773 771 769 768 767 766 766 765 764 764 764 764 764 764 764 765 765 766 764 763 763 765 767 770 772 773 775 777 779 781 782 784 788 793 793 789 786 786 787 787 787 788 788 788 789 789 789 790 792 792 792 793 794 795 796 797 797 797 797 797 797
810 809 808 807 805 804 801 799 798 796 795 793 792 790 789 787 785 783 782 781 779 777 776 774 773 771 768 767 766 765 764 764 763 762 762 763 763 763 763 763 764 764 764 763 762 761 763 765 767 769 771 773 774 775 775 776 779 786 791 790 786 784 784 784 784 785 785 786 786 787 787 788 789 790 790 791 792 793 794 794 795 795 796 796 796
810 809 808 807 805 804 802 800 799 796 795 793 791 790 789 787 785 783 782 780 779 777 775 773 772 770 768 766 764 764 763 762 762 761 760 760 760 761 761 761 762 762 762 762 762 761 761 762 764 766 767 768 769 770 772 773 773 775 781 786 785 782 781 781 781 782 782 783 784 784 785 786 787 787 788 789 790 790 791 792 792 793 794 794 794
809 809 808 807 805 804 802 800 799 797 795 793 792 790 788 786 785 783 782 780 778 777 775 773 771 769 768 766 764 763 761 761 760 759 758 758 757 758 758 759 760 760 760 761 761 760 761 761 762 763 763 764 765 767 769 772 772 771 773 778 780 779 778 777 778 778 779 780 781 782 783 783 784 785 786 786 787 788 788 788 789 790 792 792 793
810 809 807 806 805 803 801 800 798 796 795 793 792 790 787 786 784 782 781 779 777 776 774 773 771 769 767 765 763 762 761 760 759 758 757 756 756 756 756 757 758 759 759 759 759 759 759 759 760 760 761 761 762 763 765 767 769 769 770 772 774 774 774 773 774 775 776 777 778 779 780 781 782 783 784 784 785 785 785 785 786 788 789 790 791
809 808 806 805 803 801 799 798 796 795 794 792 791 789 786 785 783 781 780 778 776 775 773 772 770 768 766 765 763 761 760 759 758 756 756 755 755 755 755 755 755 756 757 758 758 757 757 757 757 757 758 759 759 760 761 764 765 766 767 768 769 770 769 769 770 771 772 773 774 776 777 778 780 781 782 783 782 782 782 783 785 786 787 788 788
808 807 805 803 801 799 798 797 796 795 793 791 789 787 786 784 782 780 778 776 775 773 771 770 768 767 765 763 762 760 759 757 756 755 754 753 753 753 753 753 753 754 755 755 755 755 754 755 755 755 756 756 756 758 759 760 762 763 764 764 765 766 766 767 767 767 768 770 771 773 774 776 778 779 780 780 780 779 780 782 783 783 784 784 785
807 805 804 802 801 800 798 796 795 793 791 790 788 786 784 782 781 779 777 775 773 771 769 768 766 765 764 762 761 759 757 756 755 754 753 752 752 752 751 752 751 751 752 752 752 752 752 753 753 753 754 753 754 755 756 757 759 760 761 761 761 763 763 764 765 765 766 767 768 770 772 773 775 776 778 778 778 777 778 779 780 780 781 781 782
807 805 803 803 801 798 797 795 793 791 790 788 786 784 783 781 779 778 776 774 772 769 768 766 764 764 762 760 759 757 756 755 754 753 752 751 751 750 750 750 749 749 750 749 749 749 749 750 751 751 751 751 751 752 753 755 756 756 758 758 758 760 760 761 762 763 764 765 766 768 769 770 772 774 775 776 776 776 776 776 777 777 778 779 780
806 805 803 802 799 796 795 793 792 791 789 787 785 783 782 780 778 776 774 773 771 768 767 765 763 762 760 759 758 756 754 754 752 752 750 750 750 749 748 748 747 747 747 747 746 746 747 748 749 749 749 749 749 749 750 751 752 753 754 755 756 757 757 758 758 759 761 761 762 764 766 767 769 771 772 773 773 774 774 773 774 774 774 775 776
805 804 802 800 797 796 795 793 791 790 787 786 784 782 780 778 776 775 773 771 770 768 766 764 762 760 759 757 756 755 753 752 751 750 748 748 747 746 745 745 745 745 745 744 744 744 745 746 746 747 747 747 746 747 747 748 749 750 751 753 754 754 754 754 754 755 757 758 758 760 762 764 766 767 769 770 771 771 771 771 771 771 771 772 772
804 803 801 799 797 796 794 792 791 789 787 784 782 780 778 776 774 773 771 770 768 767 764 763 761 759 758 756 755 754 752 750 749 748 747 746 746 744 743 742 742 742 743 743 743 743 743 744 744 744 744 744 744 744 745 746 746 748 749 750 750 751 751 751 751 752 754 755 756 758 759 761 762 763 765 766 768 769 769 769 770 769 770 770 770
802 802 800 798 797 796 794 792 790 788 786 783 781 779 777 775 773 771 769 768 767 765 763 762 760 758 757 755 754 752 751 749 748 747 745 745 744 743 743 742 741 740 739 740 740 741 741 742 742 742 742 741 741 741 742 743 744 745 746 746 747 747 747 748 748 748 750 752 753 755 756 757 758 758 760 762 764 766 767 767 768 768 769 769 769
802 801 799 797 796 794 793 791 789 787 785 782 780 778 775 773 772 769 768 766 764 763 762 760 759 757 756 754 753 752 750 748 747 745 744 743 742 741 741 741 741 739 737 736 736 737 738 739 740 740 740 739 738 739 740 740 741 742 743 743 744 744 744 745 745 746 747 748 750 752 753 753 754 755 757 759 761 763 764 765 766 767 767 767 767
800 799 798 796 795 793 791 790 787 785 783 781 779 777 774 772 770 768 766 764 763 762 760 759 758 756 754 753 752 750 749 747 745 744 742 741 740 739 739 739 739 737 736 736 735 735 735 736 737 738 737 737 737 737 738 738 738 739 740 740 741 741 741 741 742 743 744 745 747 748 749 750 751 752 754 755 757 760 761 762 764 764 764 764 764
799 798 797 795 794 792 790 788 786 784 782 780 778 776 773 771 769 767 765 763 762 761 759 758 757 755 753 752 750 749 747 745 743 742 741 740 739 738 737 737 736 735 735 735 734 734 733 734 735 735 736 736 735 735 736 736 736 736 736 736 737 737 737 738 739 740 741 742 743 744 745 746 748 749 750 752 754 756 758 759 760 761 761 762 763
798 797 796 794 793 791 789 787 785 783 781 779 777 774 772 770 767 766 764 762 761 760 758 756 755 753 752 750 748 747 745 743 742 740 738 738 737 737 736 736 735 734 733 733 733 733 732 732 733 734 734 734 734 734 734 734 734 734 734 734 734 734 734 735 736 737 738 739 740 741 741 743 744 745 747 749 751 753 754 756 757 758 759 761 762
797 796 795 794 792 790 788 786 784 782 780 778 776 773 771 768 766 764 763 761 760 758 757 755 753 751 750 748 746 745 743 741 740 738 736 735 735 735 735 734 734 733 732 732 732 732 731 731 731 732 732 732 732 732 732 733 733 732 732 731 731 731 732 732 733 733 734 736 737 738 739 740 741 742 744 746 748 750 752 754 756 757 758 760 761
796 795 794 792 791 789 787 785 782 781 779 776 774 772 769 767 765 763 762 760 758 757 755 753 751 750 748 746 745 743 741 739 738 736 735 733 732 732 732 732 732 731 730 730 730 730 730 730 730 730 731 731 731 731 731 732 731 730 730 729 729 729 729 730 729 730 731 733 734 736 737 738 739 740 742 744 746 748 750 752 755 756 757 759 760
795 794 793 791 790 788 785 783 781 779 777 775 772 770 767 765 763 761 760 758 756 755 753 751 750 748 746 745 743 741 739 738 736 734 733 731 730 730 729 729 729 729 729 728 728 729 729 728 728 728 729 729 729 729 730 731 730 729 728 728 728 727 727 727 727 727 728 730 732 733 735 736 737 738 741 743 745 747 749 751 753 755 756 757 759
794 793 792 790 789 787 784 782 780 777 776 773 771 769 766 764 762 760 758 757 755 753 751 750 748 747 745 743 741 739 738 736 734 733 731 729 728 727 727 726 726 726 726 726 726 727 727 726 727 727 727 728 728 728 729 729 729 729 727 727 727 726 726 727 727 726 727 729 730 731 733 734 736 737 739 742 744 746 748 750 752 753 754 755 757
793 792 790 789 788 786 783 781 778 776 774 771 769 767 765 762 760 759 757 755 753 751 749 748 746 745 743 741 739 737 736 734 733 731 730 728 727 725 725 724 723 723 724 725 725 725 725 725 725 726 726 727 727 727 728 728 728 728 727 727 727 727 726 726 726 726 727 729 730 730 732 733 735 736 739 741 742 744 747 748 750 751 752 753 755
792 791 790 788 786 784 782 779 777 774 772 770 768 765 763 761 759 757 755 753 751 750 748 746 744 743 741 739 738 736 735 733 731 730 728 726 725 724 723 723 722 721 721 723 724 724 724 724 725 726 726 727 728 728 727 726 728 728 727 727 727 727 727 727 726 727 727 729 730 731 731 733 734 735 737 740 742 744 746 747 748 749 751 752 753
791 790 789 787 785 784 781 778 776 773 771 769 766 763 762 759 757 755 753 751 750 748 746 744 743 741 740 738 736 735 733 732 730 729 727 725 723 722 722 721 720 719 720 722 723 724 724 724 725 725 726 727 729 728 726 725 726 727 727 727 726 727 727 726 726 727 728 730 732 732 732 734 735 735 737 739 742 744 745 747 748 749 750 751 753
790 789 788 786 784 783 780 777 775 772 770 767 764 762 760 758 755 754 752 750 748 746 744 743 741 739 738 736 735 733 732 730 729 727 725 724 722 721 720 718 717 717 718 720 722 723 724 724 724 724 725 726 726 726 725 725 725 726 726 726 726 726 727 726 726 727 728 730 732 733 733 734 735 736 738 740 742 744 745 746 748 749 750 751 752
789 788 787 785 783 781 779 776 774 771 769 767 764 761 759 756 754 753 750 749 747 745 743 742 740 738 737 735 733 732 730 729 727 725 723 722 721 719 718 717 716 716 717 719 720 720 721 722 722 722 721 721 721 722 724 725 725 725 726 727 726 727 727 727 727 727 728 730 732 733 734 735 736 737 738 740 742 743 744 746 748 749 750 750 752
788 787 785 784 782 780 778 775 773 770 768 766 763 760 758 755 753 751 749 747 745 743 742 740 738 737 735 733 732 730 728 727 725 724 722 720 719 718 717 716 716 716 716 717 718 717 717 717 718 718 717 717 718 719 721 724 724 724 726 727 728 728 728 728 728 728 729 730 732 733 735 736 737 738 739 740 741 742 743 745 747 748 749 750 751
Wind_Speed
6 7 5 7 10 9 8 10 14 14 16 21 20 18 20 21 21 22 23 24 24 24 23 22 21 21 22 23 24 23 23 23 23 24 23 23 23 23 25 25 24 23 22 21 21 20 18 18 19 19 17 13 13 14 12 12 12 11 9 8 6 6 7 9 9 7 7 6 5 6 6 5 6 7 8 8 8 8 10 12 11 10 11 14 17
5 7 3 4 7 8 9 9 12 14 14 18 21 20 19 20 22 23 23 25 25 24 24 23 23 22 23 24 24 23 23 23 22 22 22 21 21 22 23 24 24 23 23 22 22 21 19 18 20 21 18 13 13 14 12 11 11 9 8 8 7 8 8 8 10 11 8 7 5 3 3 4 6 7 8 9 9 9 10 12 12 12 11 12 14
4 4 2 3 4 5 8 10 10 13 14 16 20 20 20 21 23 24 25 26 25 24 25 25 23 21 22 22 22 22 22 21 19 18 19 19 20 20 21 22 23 23 24 23 23 22 20 19 19 21 18 14 12 14 13 11 9 8 8 9 9 9 9 6 10 11 9 7 5 2 1 2 3 6 9 11 10 11 11 12 13 13 11 11 13
4 2 1 2 3 5 8 10 9 11 13 16 20 20 21 23 24 24 24 25 25 24 24 23 20 18 19 20 20 22 22 19 18 18 19 19 19 20 20 21 22 23 24 23 23 23 21 19 19 21 19 15 12 13 15 11 10 10 9 9 10 10 10 5 7 10 10 7 3 2 1 1 1 5 8 11 11 11 12 12 12 12 12 12 14
3 3 2 1 3 5 5 5 8 11 14 18 22 23 24 25 25 24 24 26 26 26 24 23 21 17 16 16 16 19 21 19 18 18 19 20 20 20 20 20 21 23 25 24 24 24 21 19 20 22 20 16 13 13 16 13 10 11 11 11 11 11 13 9 5 7 10 7 3 2 1 0 2 2 3 5 9 12 11 11 12 12 12 13 15
2 3 3 3 5 9 8 4 5 9 16 19 20 21 23 25 25 23 24 27 27 27 27 27 27 23 17 16 16 17 19 19 19 19 20 20 20 20 19 19 21 23 25 26 25 23 21 19 19 23 23 18 14 14 17 17 13 12 13 14 12 12 15 14 9 5 5 7 6 4 2 2 2 3 2 2 5 10 9 9 11 11 12 14 16
3 2 1 2 2 8 14 16 16 15 17 15 14 14 16 20 23 22 22 24 23 24 26 27 30 29 25 21 20 21 20 20 20 20 20 21 20 20 21 21 22 23 25 26 25 23 21 19 19 23 25 21 17 15 17 18 17 16 15 14 14 15 16 16 13 7 4 6 7 7 5 4 2 2 3 1 1 5 8 8 9 9 10 13 16
5 5 5 4 5 5 7 15 22 24 24 21 15 11 10 15 18 19 19 19 18 19 23 26 27 28 26 24 25 28 26 23 21 20 21 22 21 20 21 22 22 23 24 24 24 23 22 20 20 22 26 25 20 17 16 17 18 16 15 16 15 15 15 14 12 9 7 7 7 8 7 5 4 3 2 3 2 1 4 6 7 8 10 12 14
6 6 6 7 9 10 8 5 6 12 22 29 29 23 18 16 16 17 19 18 17 19 23 26 25 25 25 25 26 29 28 23 21 19 20 21 22 20 19 20 23 25 26 25 24 24 22 20 20 20 23 25 23 20 17 17 18 17 16 17 14 11 11 11 10 10 9 9 8 9 8 6 5 4 3 3 3 2 2 3 4 6 7 10 12
6 5 6 9 12 12 12 11 12 9 5 11 19 25 27 26 23 22 22 21 20 22 24 25 26 26 27 27 25 25 24 22 20 18 18 18 21 21 17 18 24 27 27 27 25 24 21 20 20 20 21 23 24 23 20 18 18 18 17 17 15 12 11 10 10 9 8 9 9 9 9 8 6 4 5 6 4 3 3 4 6 6 5 7 7
4 5 6 10 13 14 14 15 16 15 12 9 3 5 12 19 21 20 21 21 22 23 22 22 24 25 26 27 26 24 23 23 21 19 18 18 19 20 16 15 21 27 28 28 27 24 22 21 21 21 21 22 23 23 23 21 19 18 17 17 17 16 14 13 13 10 8 9 10 10 11 11 8 7 8 9 7 5 3 4 7 7 7 8 6
5 5 6 9 12 14 16 16 17 18 17 15 13 9 5 3 7 10 12 14 16 17 17 17 19 20 22 22 22 22 22 24 24 22 20 18 18 20 18 14 16 22 27 29 28 26 24 22 22 22 23 23 23 23 22 22 21 20 18 17 18 17 17 18 16 13 11 11 11 12 12 11 11 10 10 11 11 10 7 4 6 6 6 8 8
4 5 6 7 8 12 15 16 17 18 19 18 16 13 11 8 6 7 9 11 11 12 13 15 16 18 20 21 21 21 21 23 24 23 21 18 17 18 19 16 14 16 22 28 29 27 25 24 23 24 25 24 24 23 22 21 22 23 22 19 18 16 17 21 21 15 14 14 13 13 12 12 12 11 11 13 13 13 10 6 7 6 5 7 9
4 4 5 5 7 11 14 16 17 18 19 18 16 15 13 11 9 8 10 11 11 12 13 15 16 17 19 21 22 22 22 23 22 21 20 18 17 17 18 17 15 14 16 22 28 28 26 25 25 26 26 26 25 25 24 22 20 23 24 23 20 16 14 19 22 18 15 15 14 13 12 12 11 11 12 14 15 14 12 10 7 5 5 8 8
4 4 4 4 7 11 13 16 17 18 19 18 16 16 15 13 11 10 10 11 12 13 13 14 16 17 18 19 21 21 19 20 21 21 20 19 18 18 18 17 15 14 13 15 21 27 28 26 26 27 28 28 27 26 26 23 20 21 24 24 22 18 14 15 18 18 17 16 15 14 13 12 13 13 12 13 15 16 15 15 11 4 3 5 4
4 4 4 4 6 10 12 15 17 18 18 18 17 17 17 16 14 13 12 11 12 12 13 14 15 17 18 19 20 20 18 18 20 21 20 20 21 22 22 21 18 15 14 12 14 20 25 26 27 29 30 29 28 27 27 25 22 21 22 23 22 19 15 14 16 18 18 17 17 16 15 14 14 14 12 11 12 14 15 17 15 10 5 3 2
4 4 4 4 6 9 11 12 16 18 18 19 19 19 18 16 16 17 15 13 11 10 10 12 14 15 16 17 19 19 18 19 21 22 22 23 23 23 24 24 21 17 17 16 14 14 16 18 22 24 27 29 30 29 29 27 25 24 24 24 23 19 16 15 15 17 18 17 18 18 17 17 16 15 15 15 14 14 14 14 15 15 12 6 1
5 5 5 7 9 13 14 14 17 18 18 19 20 20 18 17 16 17 17 15 13 11 9 9 11 13 14 16 18 19 18 18 21 23 25 25 25 24 22 22 23 20 18 18 17 16 14 13 15 18 21 25 28 30 31 29 27 27 26 26 25 22 18 17 16 17 17 17 18 18 18 19 18 17 16 16 16 16 15 13 13 15 16 11 6
5 6 6 8 13 16 17 18 20 21 21 20 20 20 20 19 17 17 18 17 15 13 10 8 8 10 12 14 17 19 19 19 20 21 22 24 25 24 22 21 23 23 21 19 19 20 20 18 16 16 18 21 25 29 31 31 30 29 27 26 26 24 21 20 19 18 18 17 18 18 18 18 18 17 16 15 15 15 15 15 14 14 16 15 13
4 5 4 7 12 17 19 20 21 21 21 21 20 20 21 21 19 18 18 19 19 17 14 11 9 9 11 12 14 17 18 17 18 19 20 23 24 24 22 22 22 23 23 21 20 22 23 23 21 19 19 20 21 25 29 31 31 30 29 27 26 25 24 23 22 21 19 18 19 19 19 19 18 17 17 17 18 17 16 15 14 15 15 16 16
3 4 4 5 8 13 17 20 21 21 22 22 22 20 20 21 21 20 19 19 19 19 17 16 14 11 12 13 14 15 16 16 16 17 20 23 24 24 23 22 22 23 22 20 21 22 22 23 23 23 23 22 21 23 25 30 32 31 30 29 28 26 25 25 23 22 22 20 20 20 20 20 19 19 19 18 19 18 17 15 15 15 16 16 17
2 2 3 5 7 9 12 16 19 20 21 22 22 22 22 22 22 21 21 19 18 18 19 19 18 16 14 14 15 16 16 17 16 17 19 21 23 24 25 24 23 24 23 21 20 20 22 22 20 21 24 25 24 24 27 29 32 33 33 31 30 28 26 26 25 24 24 23 23 23 22 22 21 20 20 19 18 17 17 16 15 14 15 16 18
2 2 3 5 8 10 11 13 15 17 18 19 20 21 22 23 22 21 22 21 19 18 20 21 20 18 17 15 15 16 16 18 18 19 20 21 22 24 26 26 25 24 24 24 22 21 21 20 18 20 23 25 27 26 26 28 31 33 34 33 31 30 28 27 27 27 26 26 25 25 25 24 22 21 21 20 20 19 18 18 17 16 16 16 18
3 4 5 7 9 11 13 14 15 16 17 17 17 18 20 22 22 21 21 21 20 19 20 22 21 20 19 17 16 15 16 18 20 21 22 22 23 24 27 28 27 25 25 26 26 24 22 20 19 21 21 23 26 27 26 26 28 31 33 33 31 30 30 30 29 29 28 27 27 26 26 25 23 23 23 22 21 19 19 19 19 19 18 16 17
5 4 4 6 8 10 12 15 16 17 18 17 17 18 18 19 21 21 21 21 20 19 20 22 22 21 20 18 17 16 16 18 20 21 22 23 25 26 27 29 29 27 26 27 29 28 26 24 23 23 21 22 25 28 27 24 25 30 32 32 32 31 31 31 31 31 30 29 28 26 25 24 24 24 24 22 21 19 19 20 19 19 19 17 17
4 2 2 3 5 7 11 13 15 16 17 18 19 19 17 18 20 21 21 21 21 19 20 21 22 22 21 20 18 18 18 17 18 20 22 23 25 26 28 29 30 29 28 28 28 29 29 27 26 25 24 23 25 29 29 26 26 29 31 31 32 32 32 33 32 32 31 30 29 28 26 24 24 24 23 22 21 20 20 20 20 19 19 18 18
2 2 3 3 4 6 9 10 11 14 16 17 19 19 17 17 21 21 20 21 21 20 20 21 22 22 21 20 18 17 18 18 18 19 21 22 23 24 26 27 28 29 29 27 25 26 27 27 27 26 25 24 25 28 29 27 27 29 29 31 33 34 33 33 33 33 32 31 31 29 28 26 24 24 23 22 20 20 20 21 21 20 19 19 18
4 3 4 4 4 6 8 9 10 12 15 16 15 16 17 19 21 21 20 20 20 20 19 21 22 21 21 20 18 16 17 18 18 18 19 20 21 21 22 23 24 26 27 28 26 25 25 25 26 27 26 25 25 25 25 26 27 28 29 30 34 37 35 34 34 33 32 32 31 30 29 27 26 24 23 22 21 22 22 22 21 20 19 19 20
5 5 5 5 5 6 8 10 10 12 14 13 12 14 17 19 20 20 20 21 21 20 18 20 21 22 21 20 18 16 15 16 17 18 18 18 19 20 20 20 22 24 26 27 26 25 24 24 25 27 27 26 27 27 27 27 27 28 28 26 31 36 35 33 34 33 33 33 32 31 30 28 27 25 23 22 22 24 25 24 23 21 20 20 21
5 5 5 5 6 7 9 10 11 13 14 12 12 14 17 18 19 20 22 22 22 21 18 18 20 22 21 20 19 17 16 16 16 17 18 18 18 19 20 20 21 24 27 27 25 24 24 23 23 25 26 27 28 29 28 28 28 29 28 25 26 31 32 33 33 33 33 33 32 31 30 29 27 25 24 24 23 24 24 23 21 20 20 20 21
5 6 5 6 6 7 9 10 11 12 13 13 15 16 17 19 19 20 22 23 22 22 20 18 19 21 21 20 19 17 16 16 16 16 17 17 17 18 19 20 20 22 25 26 25 24 25 24 24 24 25 27 29 29 27 27 27 28 28 27 27 28 30 32 33 33 33 33 32 32 31 29 28 26 25 24 23 22 22 22 21 20 19 20 22
6 6 5 5 5 6 8 9 10 11 13 15 17 18 19 20 20 21 22 23 24 24 21 18 19 20 20 20 19 18 17 17 16 16 16 17 17 17 18 19 20 21 23 24 24 24 24 24 23 23 24 26 28 29 27 26 25 25 25 27 29 28 29 30 31 32 33 33 32 32 32 31 30 27 25 23 23 23 23 23 23 22 21 21 21
6 6 6 6 6 7 7 8 10 12 14 17 18 18 19 20 20 21 22 22 24 24 21 19 19 20 20 20 19 18 18 17 16 15 16 16 16 17 17 18 19 20 20 21 21 22 22 22 22 22 24 26 28 28 27 26 27 26 25 26 28 29 28 29 30 30 30 31 31 31 31 31 30 27 24 23 23 23 23 23 21 21 22 22 22
5 5 5 6 7 8 9 9 11 13 15 16 16 17 18 19 20 22 22 21 22 21 19 19 21 21 20 20 20 19 19 19 17 15 15 15 15 16 17 18 19 19 19 19 20 20 20 20 21 22 24 26 27 27 25 25 26 28 28 28 28 28 28 29 30 30 30 30 30 29 30 30 29 26 25 23 23 23 24 24 23 23 24 24 23
5 4 6 7 9 10 10 10 12 14 15 15 16 18 19 19 20 22 22 20 20 19 19 21 21 21 20 20 20 20 20 20 19 18 16 15 15 15 15 16 17 18 18 19 19 19 20 20 21 22 23 25 26 26 25 24 24 26 28 27 27 28 29 29 29 29 29 30 30 29 30 30 28 27 25 24 23 24 24 24 24 25 25 24 23
3 5 7 9 10 10 10 11 13 16 17 17 18 20 20 21 21 21 21 21 20 20 21 21 20 19 20 20 20 20 20 20 20 19 18 17 16 15 14 13 14 16 17 18 18 19 20 20 21 21 22 24 25 25 25 24 23 23 24 24 25 27 29 30 29 29 29 30 30 29 29 30 28 27 25 23 23 23 23 23 23 24 24 24 24
5 7 9 11 13 13 13 14 16 17 17 18 21 21 21 22 22 21 21 21 21 21 21 20 18 19 21 21 20 19 20 21 21 20 19 18 17 17 16 14 13 14 15 15 17 19 19 19 20 20 21 23 24 23 21 21 22 21 21 21 23 25 27 28 29 29 29 29 29 29 29 29 29 26 24 23 21 20 20 20 21 22 22 23 22
9 10 11 14 16 16 15 15 16 18 20 21 22 21 21 22 21 21 22 22 21 21 19 18 19 21 22 20 19 19 20 21 21 20 19 18 17 17 17 16 14 14 15 13 12 15 17 18 19 20 21 23 23 20 17 17 17 18 19 22 23 24 24 26 28 28 27 27 27 27 27 29 28 26 24 22 20 20 19 19 19 20 20 21 20
11 11 10 12 16 17 17 18 19 20 21 22 22 22 22 21 20 21 22 22 21 20 18 18 21 22 21 19 17 18 19 20 21 20 19 18 17 16 15 15 14 14 15 13 11 13 16 17 18 20 20 20 21 19 16 15 16 16 18 21 22 23 24 25 26 26 26 27 27 26 26 27 27 25 24 23 21 21 21 20 20 20 20 20 19
12 12 11 14 17 18 19 20 21 21 21 21 23 23 22 21 21 21 21 21 22 22 20 20 21 21 21 19 17 17 18 19 19 20 19 18 17 14 12 12 12 12 13 15 14 14 16 16 16 17 17 18 19 18 16 16 16 17 18 20 21 22 24 25 24 23 23 24 26 26 26 26 26 25 24 23 21 20 21 22 21 21 21 20 17
11 11 12 14 18 19 19 20 22 21 20 22 23 23 22 22 22 21 21 22 23 22 22 22 22 22 22 21 18 17 17 18 18 18 18 17 16 14 12 12 13 13 12 13 14 15 15 16 15 15 16 16 16 16 17 16 15 14 15 17 19 21 22 22 23 23 22 23 25 27 27 26 26 26 24 21 20 21 22 22 22 22 21 18 15
11 12 13 15 17 19 20 21 22 21 21 23 23 22 22 22 21 21 22 24 23 23 23 22 22 21 22 22 20 17 17 18 18 17 18 18 15 13 13 13 13 13 11 11 13 14 15 16 16 15 15 15 16 16 16 14 13 12 12 14 17 20 21 20 21 22 23 24 24 26 26 25 25 25 23 19 19 21 22 21 20 19 17 14 13
11 12 14 16 17 18 20 21 22 22 22 23 22 22 21 21 20 22 25 25 24 23 23 22 20 20 21 22 21 19 18 18 17 16 17 17 15 14 13 12 12 12 11 11 11 12 14 16 16 15 15 15 16 16 15 14 13 11 11 11 13 15 16 18 19 21 23 23 23 24 25 25 25 24 21 19 19 20 19 18 17 15 14 14 14
11 13 15 15 16 18 20 22 23 23 23 23 22 21 21 21 22 24 26 25 24 23 22 21 20 20 20 21 22 21 20 18 16 16 15 15 13 12 12 11 11 11 10 11 11 11 12 13 15 15 15 15 15 14 14 15 14 11 10 10 9 8 9 12 16 20 21 22 22 22 23 23 22 22 20 19 18 18 17 16 15 14 13 13 13
12 14 15 16 16 18 20 21 23 24 24 24 23 21 21 22 24 25 25 24 23 22 21 20 20 20 20 20 23 23 21 17 15 14 14 14 12 10 10 9 9 9 10 11 12 12 11 12 12 13 13 14 14 13 13 12 10 8 8 9 7 6 6 7 10 12 15 17 16 16 17 18 19 20 20 19 17 16 15 14 13 13 13 13 13
13 14 16 17 17 18 19 20 23 25 25 24 24 22 21 23 24 25 24 23 22 21 21 20 20 20 19 20 22 22 19 15 14 14 14 14 12 11 10 9 7 7 8 11 12 12 11 10 10 11 12 13 14 13 11 10 8 6 6 6 6 7 7 6 6 7 10 11 12 12 15 18 18 18 16 15 14 13 11 11 11 12 12 12 12
13 14 16 16 16 17 19 20 22 25 26 25 24 24 23 24 25 24 24 23 21 19 20 20 21 20 19 19 19 19 16 15 16 15 15 14 13 12 11 10 7 5 6 9 11 12 11 9 8 10 11 13 15 14 11 10 9 8 7 7 7 8 8 7 7 8 9 10 11 13 16 16 15 13 11 9 8 8 8 9 10 10 10 10 11
15 15 15 15 15 16 18 20 22 24 25 25 24 24 25 24 24 24 23 22 21 19 19 20 20 20 19 18 18 16 16 16 17 17 16 16 14 13 12 11 7 6 6 8 10 12 12 10 9 9 9 10 13 15 13 11 11 10 10 10 8 7 8 8 8 10 10 11 13 15 16 14 12 11 10 9 8 8 8 9 9 8 8 9 10
17 16 14 14 15 17 18 20 21 23 25 24 24 25 25 25 24 23 22 21 20 19 19 20 20 18 17 17 17 15 15 16 17 17 17 15 13 12 12 10 6 4 6 8 10 12 12 11 10 10 10 10 14 16 15 13 12 11 11 11 10 8 8 8 9 10 12 14 15 16 15 14 13 12 11 11 11 10 9 8 8 8 9 9 10
17 16 14 15 16 17 18 20 22 23 24 24 25 25 25 25 24 22 21 20 19 19 19 19 19 17 17 17 16 16 16 16 15 16 17 15 12 10 10 8 6 5 7 9 11 12 12 12 13 13 13 14 17 17 16 14 12 12 11 12 11 9 8 9 10 11 12 14 14 14 14 14 14 14 13 13 13 11 9 8 8 8 7 8 9
17 16 15 15 16 17 18 20 22 23 24 24 25 25 25 24 24 23 21 20 19 19 19 20 19 18 17 16 16 17 17 15 13 13 15 15 13 10 9 8 7 7 7 9 12 14 14 14 15 15 16 16 16 16 17 16 13 12 12 13 11 9 9 10 12 13 13 13 13 12 12 12 12 12 13 13 12 11 10 8 8 8 8 9 10
Wind_Direction
63 85 119 175 174 163 178 189 184 186 191 197 205 209 210 209 211 215 215 214 215 215 212 213 216 219 221 222 222 225 229 234 238 240 241 242 242 241 240 241 242 241 241 242 242 245 247 243 243 240 238 254 253 236 232 238 255 270 255 238 247 253 243 231 219 211 215 209 195 204 210 219 224 218 220 223 225 226 217 212 212 212 215 215 215
58 65 80 170 162 159 182 185 178 192 196 197 208 215 214 217 218 218 216 216 217 219 217 216 218 220 222 224 224 226 229 233 236 239 239 241 242 241 240 240 239 237 238 241 242 243 246 244 242 238 237 250 248 227 228 244 253 253 234 230 252 271 276 249 213 196 202 206 186 188 227 238 244 242 239 235 231 230 224 218 216 215 215 216 215
73 59 53 145 143 127 160 171 180 203 207 202 209 216 218 223 224 221 217 216 218 222 223 223 225 228 230 230 229 230 233 235 237 239 238 237 238 238 237 236 235 236 237 240 242 242 245 243 236 233 233 244 246 226 228 242 240 230 229 242 255 269 285 268 216 204 196 189 170 146 224 234 255 253 244 242 237 229 228 227 223 221 222 222 218
90 107 70 119 136 108 133 161 179 202 210 204 205 212 220 223 224 223 220 217 220 223 226 226 230 240 241 237 237 236 236 240 240 241 240 237 238 238 237 235 234 236 237 239 241 241 243 240 231 228 228 237 245 233 230 234 233 233 238 247 253 267 281 263 216 219 210 190 155 132 136 109 271 251 235 239 240 230 231 232 227 226 225 225 222
102 122 138 133 146 132 127 164 184 200 215 213 209 212 216 218 221 225 224 221 223 223 222 222 226 242 250 244 244 239 234 237 237 235 237 237 239 239 237 237 237 237 237 239 240 238 240 239 230 225 226 231 237 236 235 236 239 244 249 251 248 261 271 261 221 220 226 224 205 159 104 69 250 233 224 243 231 221 231 233 226 229 229 226 225
112 129 169 168 145 149 159 186 200 219 229 226 223 220 217 216 218 223 225 224 225 222 216 214 216 222 227 227 234 234 226 226 230 232 234 235 237 238 237 239 240 239 238 237 236 234 237 241 232 223 223 224 228 235 238 239 243 249 250 248 246 253 261 262 253 227 231 242 237 235 255 254 223 166 153 274 233 225 236 233 224 230 233 228 225
44 45 108 147 121 145 162 173 179 200 223 233 240 235 225 220 220 225 226 226 227 222 216 214 213 213 211 210 221 231 227 225 230 234 235 234 236 241 242 240 241 239 235 232 230 230 235 241 234 222 220 221 225 234 238 239 241 247 246 241 248 258 259 255 247 228 224 237 235 244 257 254 229 174 183 212 262 241 238 230 228 233 236 230 224
36 23 17 26 22 50 130 165 174 183 192 199 210 222 229 228 230 234 231 231 233 228 222 218 214 215 215 213 219 227 230 231 234 235 236 234 235 241 242 239 239 235 230 227 227 229 234 239 236 223 219 221 224 232 238 237 236 241 247 248 255 261 255 243 228 216 223 232 229 234 245 243 221 211 216 190 146 225 249 240 235 235 240 237 229
37 27 14 11 7 11 25 72 129 160 175 182 187 189 196 209 222 230 226 225 233 234 232 227 219 218 220 220 223 227 228 231 236 236 236 233 232 239 242 238 235 230 226 226 227 229 233 237 232 223 221 221 223 230 236 234 235 239 246 252 254 245 232 224 216 216 227 234 232 225 224 221 214 225 238 208 171 182 252 252 236 237 245 245 238
30 26 22 11 7 5 9 22 31 42 115 172 182 184 187 191 195 205 208 209 216 222 226 228 222 218 218 218 223 229 226 224 227 229 231 233 234 238 242 236 229 224 222 224 228 231 234 233 226 222 223 223 224 230 233 233 235 238 241 248 249 232 218 221 230 236 237 239 241 228 215 209 208 223 225 218 204 201 228 255 255 251 255 264 261
20 18 22 17 17 16 15 18 21 23 23 18 16 192 190 189 191 194 197 198 202 207 214 222 224 225 225 221 222 228 227 221 219 221 225 231 235 238 240 234 225 222 221 223 227 232 233 231 228 226 227 227 228 230 233 234 233 235 240 247 250 241 236 242 248 250 243 239 246 240 225 218 220 233 234 222 212 206 212 247 258 259 260 269 284
16 17 18 18 18 15 13 12 13 17 19 18 15 4 349 255 222 215 213 210 206 209 218 227 230 234 239 238 236 239 235 227 222 220 222 226 235 242 243 239 228 223 222 223 226 231 231 230 230 231 231 231 232 233 235 236 235 236 240 248 253 251 249 247 246 248 238 230 240 239 230 231 238 249 251 235 224 224 222 230 259 267 266 269 281
23 18 14 15 15 9 8 7 7 12 15 18 19 12 5 350 311 274 264 258 246 242 245 248 244 241 245 248 249 253 252 242 230 224 223 224 232 240 242 241 236 230 227 227 229 230 231 231 231 232 233 234 235 236 238 240 241 239 238 245 252 256 256 247 241 243 237 230 234 234 234 243 246 252 255 244 235 233 227 231 259 259 246 266 283
34 26 18 11 9 6 7 8 9 11 12 14 16 15 14 8 350 320 302 292 279 272 267 263 259 252 249 246 244 249 257 258 247 235 231 230 232 237 242 243 242 241 237 234 235 234 232 232 233 233 235 237 239 239 239 242 246 240 235 239 246 253 259 248 240 237 233 232 232 231 236 243 243 251 254 244 237 232 225 225 241 250 241 253 271
34 34 26 8 11 12 9 10 11 11 12 12 11 12 15 15 9 354 336 322 307 294 282 274 270 263 256 252 247 244 250 262 259 247 241 239 237 237 239 239 240 242 242 239 238 237 235 233 233 235 237 238 240 241 239 240 246 243 236 237 242 248 253 245 235 230 226 228 231 233 239 243 245 251 251 246 242 239 239 238 233 222 248 260 264
31 31 16 359 15 20 15 13 9 7 10 11 8 8 10 10 9 7 2 352 334 314 297 287 281 272 264 262 260 253 248 251 252 249 246 243 241 238 235 231 230 235 241 240 234 235 238 236 235 236 238 238 239 240 239 238 242 244 240 240 241 239 236 230 225 224 223 226 232 237 241 242 244 244 242 245 248 246 250 252 243 225 218 252 290
8 11 2 354 11 14 13 15 9 2 4 7 7 7 8 9 7 7 7 4 355 336 313 299 289 281 273 267 267 266 259 250 246 247 248 248 247 245 243 237 230 233 243 242 235 237 241 238 240 243 241 239 238 238 239 237 239 244 244 244 240 230 224 221 217 219 221 225 232 235 239 243 244 244 245 248 250 253 255 256 252 240 224 211 216
351 354 357 356 5 6 3 6 5 1 360 3 7 6 7 8 6 6 6 2 356 348 335 319 300 289 279 270 271 272 267 256 248 243 242 247 250 250 250 245 237 237 243 244 244 249 249 239 240 250 250 245 242 238 238 237 237 240 244 243 236 228 226 222 217 219 221 225 232 235 239 244 247 247 248 248 248 253 255 253 252 244 233 224 209
1 5 1 355 359 360 359 1 2 3 3 4 7 6 6 5 2 0 2 3 360 352 342 329 308 294 285 280 278 274 268 258 249 242 241 244 249 249 249 248 246 245 246 249 251 252 253 248 242 250 257 255 251 244 238 237 236 237 240 238 232 229 231 228 223 225 227 230 234 238 241 242 245 246 246 247 247 251 255 255 253 244 239 238 227
24 27 14 359 359 356 356 358 358 1 3 5 7 6 7 7 4 358 356 360 2 358 347 334 317 298 290 286 282 277 272 262 250 244 244 245 247 248 246 247 251 254 253 254 255 256 257 253 247 251 258 259 260 255 242 234 233 235 237 235 232 232 234 234 234 233 234 235 234 237 242 240 241 244 244 247 251 256 259 257 253 246 241 240 230
29 30 21 5 359 356 355 354 353 356 358 0 3 3 3 5 5 2 357 355 356 356 351 342 331 313 297 289 285 280 275 266 252 243 245 248 249 247 243 242 245 250 253 254 255 257 259 256 251 254 259 263 272 277 264 244 234 234 236 235 234 235 236 237 238 236 234 235 234 236 240 240 239 244 247 250 256 259 260 256 250 245 240 236 228
5 355 357 347 343 348 351 350 350 352 353 354 355 355 356 358 1 3 0 355 350 350 350 347 341 330 315 300 291 284 276 269 259 248 246 249 251 247 242 239 237 237 239 243 248 252 256 259 258 254 253 254 261 275 276 261 245 235 232 234 235 235 238 239 237 236 234 232 233 235 237 238 240 245 249 252 256 256 257 256 248 241 240 239 232
313 312 319 327 328 329 334 338 340 342 345 347 348 348 348 350 354 358 359 357 351 347 349 349 345 338 328 315 300 287 278 271 262 252 248 247 247 245 240 237 236 231 226 229 235 242 249 254 254 250 248 247 250 259 265 261 254 243 231 231 235 235 236 238 235 235 235 232 233 236 238 240 241 243 247 252 256 257 255 252 245 242 247 248 243
318 320 312 314 319 321 324 325 326 329 332 336 338 338 340 343 347 350 353 354 352 347 347 348 346 340 331 321 307 293 281 272 263 255 251 247 245 244 239 237 238 234 226 223 224 230 238 240 238 240 244 243 244 249 250 249 255 257 242 231 233 235 234 235 235 235 236 235 236 238 240 241 239 241 247 253 256 255 250 246 246 248 248 246 244
339 348 323 311 317 323 325 323 322 323 324 328 330 328 330 335 340 343 345 349 351 348 345 344 343 340 333 323 311 300 290 279 269 261 256 253 250 248 245 243 241 239 234 226 220 220 225 228 228 230 234 235 234 238 244 242 248 262 259 241 231 232 234 234 235 236 237 238 239 239 240 240 239 243 249 252 252 248 245 246 249 250 246 242 241
345 355 310 308 322 325 326 327 328 326 326 330 330 327 324 325 330 336 338 342 348 347 343 341 339 337 333 325 316 305 296 287 277 268 265 262 258 254 252 250 247 243 239 231 223 219 220 223 226 229 231 232 230 232 238 238 237 250 261 254 238 233 234 236 235 236 238 239 240 241 242 242 242 245 249 250 248 245 244 245 248 248 245 242 240
300 289 292 314 316 309 316 323 326 327 328 332 336 336 331 323 323 327 331 336 343 343 340 338 336 334 332 328 321 311 301 292 284 276 272 269 266 260 257 256 254 249 242 237 229 223 221 222 224 228 230 230 230 231 235 239 238 237 243 250 247 239 235 237 236 236 237 237 239 241 243 244 244 246 248 247 245 243 242 245 248 249 246 242 239
320 318 300 296 291 291 302 309 313 319 323 329 339 342 336 328 325 326 327 330 334 337 337 335 333 331 331 331 329 320 309 300 293 286 280 274 270 267 263 263 262 255 247 243 237 231 230 230 229 231 231 230 229 231 234 239 240 233 229 238 245 241 236 235 235 235 236 236 238 240 242 244 245 247 247 245 243 243 241 242 246 248 246 242 238
328 314 286 276 280 282 286 294 301 309 315 323 332 334 331 329 330 330 329 327 327 328 331 332 330 329 330 332 332 328 320 311 302 293 287 280 274 270 268 267 265 261 256 252 248 243 239 236 235 235 235 234 233 234 235 233 231 228 225 230 238 238 234 233 232 232 233 234 236 239 241 243 245 247 248 249 250 248 245 244 246 247 247 243 238
302 289 277 270 271 270 274 285 298 309 315 317 318 323 325 325 327 329 329 328 325 321 322 328 329 329 330 330 330 330 326 321 313 301 292 286 279 274 269 266 265 264 262 258 253 249 244 238 235 235 237 239 240 240 240 236 231 228 227 228 232 233 231 230 229 229 229 231 233 237 239 242 244 246 249 252 254 251 247 245 248 249 249 246 241
276 271 270 267 266 275 288 298 307 315 317 312 312 319 322 322 325 327 329 329 324 317 317 322 326 330 331 330 329 329 325 322 319 312 303 294 287 281 273 267 264 262 261 258 253 249 247 244 240 238 238 239 241 241 241 239 234 231 231 232 233 233 231 229 227 226 227 229 231 235 239 242 243 244 248 251 251 248 244 243 245 247 248 247 243
279 274 269 272 278 293 305 309 312 314 314 313 314 316 319 322 326 327 329 329 325 319 315 317 324 330 331 331 331 328 324 322 319 316 313 307 297 288 279 271 265 261 259 256 251 249 249 249 246 243 242 243 243 243 242 238 233 229 229 231 233 233 231 230 229 228 229 230 233 236 239 241 243 244 246 247 246 246 247 249 249 248 248 248 242
289 285 279 282 287 295 303 307 310 313 319 324 324 322 322 325 326 326 328 328 326 323 317 315 323 327 327 330 332 329 326 325 322 319 317 312 303 294 285 275 268 264 260 256 255 255 254 253 249 243 242 244 246 246 244 241 236 232 229 230 231 231 230 232 233 233 233 233 235 237 239 241 242 243 243 244 244 245 250 253 253 251 252 249 242
312 305 289 283 285 294 305 316 324 328 332 334 334 331 328 326 325 325 327 330 330 328 321 317 321 323 324 327 329 329 329 327 326 325 317 306 300 295 289 283 277 271 265 262 262 262 258 253 248 243 242 245 248 250 250 248 244 240 237 235 235 235 234 236 238 238 237 236 236 238 240 240 241 242 242 242 243 244 246 249 250 251 253 252 248
335 313 287 287 297 306 318 335 343 341 336 330 330 329 326 324 325 326 327 330 332 329 323 320 320 320 322 325 328 328 328 327 327 325 316 303 294 290 286 284 281 276 271 269 266 262 258 252 247 244 244 246 249 251 252 251 248 244 240 238 239 239 237 236 236 237 238 239 239 239 240 240 240 242 243 243 243 244 244 244 246 248 250 253 252
322 295 296 312 326 332 339 345 342 337 333 329 328 328 324 321 321 322 324 326 325 323 321 321 321 321 321 324 327 326 324 325 325 322 316 308 300 292 284 277 275 273 272 273 270 267 263 258 253 248 244 246 249 250 249 249 248 245 242 240 240 239 236 233 233 235 238 242 242 239 238 239 240 242 244 243 243 244 243 242 245 247 246 246 248
326 323 338 352 358 355 347 340 334 332 332 330 329 328 325 321 319 319 321 321 318 316 319 321 322 323 323 324 327 326 322 323 323 320 316 312 308 302 293 285 278 270 263 263 268 272 270 265 261 256 252 253 255 254 251 249 248 247 244 241 240 237 233 232 233 234 236 239 238 235 235 238 239 240 241 239 235 234 236 240 242 243 241 241 244
344 354 6 4 358 350 341 334 331 331 333 331 328 326 324 320 317 317 317 317 314 314 318 321 322 324 325 327 328 325 320 321 323 321 317 312 311 310 305 298 290 277 267 263 266 272 273 269 265 261 259 259 260 260 257 252 248 245 242 241 241 237 234 233 232 231 232 233 234 234 234 235 236 237 236 234 230 225 227 234 236 236 236 238 241
357 2 1 352 348 344 337 334 332 331 333 333 330 325 322 316 313 314 313 312 313 315 318 320 322 324 326 327 328 325 320 320 321 320 318 313 309 311 310 304 293 284 284 285 280 276 276 274 270 267 263 261 262 264 262 255 250 246 241 240 238 234 231 232 232 231 230 229 231 233 232 231 233 233 232 232 230 224 222 227 229 229 230 234 238
353 350 346 346 346 341 335 331 330 328 331 335 332 326 319 313 311 311 309 308 313 316 317 318 319 324 326 325 324 323 321 320 318 316 317 314 308 306 305 298 290 288 292 295 292 288 286 282 278 275 269 264 263 264 262 259 255 249 242 237 233 228 226 227 228 226 223 223 225 229 229 228 229 229 228 229 227 222 221 225 226 225 226 231 234
342 341 347 348 343 338 332 328 328 328 329 333 331 323 316 313 311 309 307 311 316 318 318 318 318 322 325 324 321 321 320 320 317 313 311 311 308 305 298 292 290 289 291 295 297 296 291 287 285 281 275 270 268 267 265 260 254 245 236 230 228 228 229 228 225 221 219 219 222 226 228 226 225 225 224 222 220 216 215 220 225 226 228 230 232
344 349 352 347 340 335 331 327 328 328 327 328 328 321 315 313 311 309 311 316 319 320 320 320 320 320 322 322 321 320 321 320 316 310 308 308 308 307 302 294 290 289 291 293 294 292 287 285 285 281 275 272 270 268 264 259 252 243 232 226 229 235 236 232 223 217 218 219 222 227 229 227 224 223 219 215 216 214 210 214 225 230 230 227 226
347 347 345 343 338 333 329 326 327 328 326 326 325 320 316 312 309 312 318 319 319 320 321 321 321 320 320 321 319 319 322 321 312 305 305 307 306 306 306 298 285 283 289 292 290 287 285 282 280 277 272 268 265 262 260 259 257 248 232 228 235 241 241 236 228 222 221 223 226 230 229 224 221 218 212 207 211 212 208 208 214 219 217 214 216
341 339 339 340 337 331 328 327 328 329 328 326 322 318 314 311 310 315 321 321 319 321 321 319 319 320 321 322 320 318 319 318 309 302 305 308 307 304 304 299 287 278 280 283 283 283 280 275 272 272 269 259 252 254 261 263 260 247 228 226 232 235 237 239 234 227 222 218 219 221 218 213 212 209 202 199 204 206 202 199 201 207 212 212 214
334 336 338 337 335 331 328 327 328 330 329 326 323 316 310 309 314 319 321 322 321 321 318 315 316 319 322 323 321 319 318 315 308 303 304 307 308 303 294 286 279 274 273 275 276 275 271 267 265 268 267 255 244 248 258 258 252 241 228 224 225 223 224 229 228 219 210 204 202 202 198 196 198 197 190 187 192 195 197 200 205 214 222 225 223
332 335 335 334 334 331 328 326 328 330 330 327 325 319 312 312 317 320 321 323 323 320 315 313 314 316 320 322 322 321 319 315 312 310 305 304 304 299 286 271 263 266 267 265 265 265 262 260 259 262 265 259 252 253 254 242 229 224 220 210 200 197 199 205 205 196 190 189 187 185 184 184 186 184 180 182 189 193 199 211 218 222 227 230 228
330 332 333 334 332 329 327 326 326 329 330 328 325 323 320 319 321 322 323 324 322 317 314 313 313 313 315 319 323 321 315 311 315 317 314 308 304 296 285 273 268 274 268 260 261 264 262 258 255 259 266 264 255 250 245 230 216 209 206 199 187 183 189 192 183 175 175 176 172 168 168 172 174 172 170 181 197 204 210 218 223 224 223 222 223
331 330 333 334 331 326 324 324 325 328 329 328 327 328 327 325 326 327 327 324 319 316 314 314 314 312 310 314 319 318 310 308 313 317 317 314 309 298 287 281 285 296 286 267 258 258 260 261 258 259 268 267 254 249 247 237 222 209 203 201 194 185 187 183 168 159 158 157 156 154 155 159 164 164 166 177 195 207 211 213 216 218 218 219 223
330 330 332 333 329 325 323 323 324 327 330 331 331 331 331 330 330 331 331 326 318 314 314 315 315 311 309 311 315 313 309 308 309 313 316 314 308 297 290 290 294 296 281 265 250 246 252 257 252 250 253 252 250 257 265 258 238 221 213 211 202 187 177 170 160 153 150 150 151 153 154 158 163 167 174 182 191 198 203 209 218 225 226 226 225
332 330 329 330 330 328 327 325 326 329 331 332 333 334 335 335 334 332 331 328 320 312 311 314 315 312 309 310 310 309 310 309 307 309 313 312 307 299 292 288 278 260 256 254 246 242 244 242 236 236 240 241 244 256 269 266 244 226 221 218 209 193 177 167 164 162 158 158 159 160 163 168 172 177 183 187 189 194 201 209 215 218 214 209 207
329 327 325 326 330 331 330 328 328 330 331 332 334 336 337 339 338 335 332 329 323 313 308 311 314 312 309 309 307 306 308 309 307 308 310 307 305 304 300 291 277 262 256 251 246 245 242 236 232 232 231 232 236 247 257 257 242 221 216 215 208 199 185 174 172 171 166 167 171 173 177 183 184 187 194 197 197 199 201 202 202 199 190 186 191